STARLINK-2203 (47417 NORAD) Tracking and Keplerian Element Data

This shows tracking and keplerian element data for the satellite.

Feedback or suggestion? Click here.




ElementValue
Catalog47417
NameSTARLINK-2203
Epoch Orbit1257
Epoch Day105.67979934
Epoch Year2021
RAAN168.2338
Inclination97.499
Eccentricity0.0009894
Argument of Perigee7.1005
Mean Anonmoly353.0365
Mean Motion15.14320242
Decay Rate1.05E-05
L11 47417U 21006E 21105.67979934 .00001050 00000-0 60883-4 0 9990
L22 47417 97.4990 168.2338 0009894 7.1005 353.0365 15.14320242 12571

Live tracking and technical data element details for STARLINK-2203 (NORAD 47417). STARLINK-2203 can be tracked NOW for your location showing map with azimuth and elevation plus other details from your city location.

Track the satellite on the map from your city or location and see movement details for azimuth, elevation, latitude, longitude, range, height, and movement on the map or in text.







IsCatalogInMostPopularTable: catalog: 47417, numindb: 18
Update: records affected: 1



GetName: 47417 STARLINK-2203

Hit Count: updated at: Fri, 16 Apr 2021 12:02:52 GMT